Tracking 22454 objects as of 5-Mar-2021
HD Live streaming from Space Station
objects crossing your sky now

FREGAT DEB

Track FREGAT DEB now!
10-day predictions


NORAD ID: 45958
Int'l Code: 2011-037FP
Perigee: 622.9 km
Apogee: 3,687.1 km
Inclination: 51.4 °
Period: 130.6 minutes
Semi major axis: 8525 km
RCS: Unknown
Launch date: July 18, 2011
Source: Commonwealth of Independent States (former USSR) (CIS)
Launch site: TYURATAM MISSILE AND SPACE COMPLEX (TTMTR)

Note: This is SATELLITE DEBRIS
aabbcc
Your satellite tracking list
Your tracking list is empty




NASA's NSSDC Master Catalog

Two Line Element Set (TLE):
1 45958U 11037FP  20233.29127845 +.00024011 +00000-0 +23715-1 0  9998
2 45958 051.3940 203.7217 1796951 181.7345 177.6537 11.02770030002979
Source of the keplerian elements: AFSPC